Location: Boćki
(52.6512°N, 23.0459°E)
Time: 18:03:06
(UTC+02:00)

ISS - Pass Details

Date: 26 March 2019
Orbit: 408 x 410 km, 51.6° (Epoch: 27 April)

Event Time Altitude Azimuth Distance (km) Brightness Sun altitude
Rises 19:23:38 0° 250° (WSW) 2,334 0.8 -14.4°
Reaches altitude 10° 19:25:43 10° 246° (WSW) 1,474 -0.4 -14.7°
Maximum altitude 19:28:59 60° 166° (SSE) 475 -3.7 -15.1°
Enters shadow 19:30:05 36° 103° (ESE) 670 -3.3 -15.3°
